Theta_e
309 310 310 309 308 308 307 308 308 308 308 308 307 307 307 307 306 306 306 306 306 307 307 307 306 307 306 308 308 316 317 320 321 319 319 320 319 324 325 322 321 322 320 320 321 322 321
309 309 308 308 308 307 307 307 306 307 307 307 307 308 307 306 304 304 306 304 306 306 306 307 307 306 306 309 306 311 312 315 318 320 318 318 318 322 322 321 322 321 322 321 320 322 322
309 308 308 308 308 306 306 306 307 308 308 308 307 307 307 305 303 302 303 304 306 306 306 306 307 306 306 308 308 313 310 312 315 319 317 318 317 321 320 322 321 321 322 321 320 321 322
308 308 307 307 305 306 306 307 307 308 308 307 307 307 307 305 304 304 304 304 306 306 306 305 306 305 306 304 305 307 313 314 314 319 315 318 317 319 319 319 321 321 322 323 320 321 321
308 307 307 307 305 305 306 306 307 308 306 306 307 307 306 305 304 304 304 304 306 306 306 304 305 306 306 307 306 306 313 315 314 319 317 320 319 320 319 320 321 321 320 320 319 319 320
307 307 306 306 305 305 306 307 307 308 306 306 306 306 305 304 303 302 302 302 304 304 305 305 305 305 305 308 309 312 314 314 318 319 320 321 321 319 319 319 319 318 317 317 318 320 319
307 307 306 305 305 304 305 306 307 308 307 306 305 304 303 304 302 301 304 305 306 305 304 304 303 306 308 308 311 313 313 317 318 319 322 323 324 323 319 316 315 315 316 315 316 317 319
307 307 306 305 305 304 305 305 306 307 307 306 304 302 304 303 302 301 304 304 304 304 305 303 303 304 305 307 315 315 315 316 318 321 318 321 325 319 317 317 317 318 317 317 317 317 317
306 306 305 305 304 304 304 304 305 306 307 305 304 300 302 302 303 303 304 304 305 305 308 307 306 306 309 312 314 316 314 313 317 318 320 321 320 318 318 318 318 317 317 317 318 317 317
305 306 305 305 304 304 303 303 304 305 306 306 304 302 301 302 304 304 304 305 304 304 311 311 310 310 312 314 316 313 312 312 311 319 321 320 319 319 319 319 316 318 317 318 318 319 316
305 305 305 305 304 304 303 303 303 304 305 305 306 303 302 303 304 304 304 304 304 305 318 312 308 309 312 316 314 313 312 316 313 314 317 316 320 320 319 318 317 319 318 318 319 319 319
305 305 305 305 304 303 303 303 303 303 304 305 305 305 302 306 305 304 304 304 305 313 318 313 311 315 316 316 315 314 314 313 312 314 314 315 314 316 317 317 316 316 317 317 318 318 323
304 305 305 305 304 304 304 303 303 303 303 304 306 305 303 304 306 304 304 307 314 318 310 315 316 317 317 317 316 315 313 314 315 318 317 312 312 313 313 316 315 317 319 325 325 326 324
304 304 305 304 304 303 304 304 302 302 302 304 304 305 304 304 305 304 306 312 321 314 317 315 316 316 319 316 315 316 318 319 315 318 320 323 320 313 310 316 317 317 320 324 323 323 320
304 304 305 304 304 303 303 303 303 302 301 303 304 306 305 306 304 305 310 318 317 315 314 314 314 316 318 315 318 319 317 316 317 315 320 321 319 313 310 313 317 318 320 313 316 312 316
303 303 304 305 304 303 303 302 302 301 300 304 305 307 308 305 305 307 315 315 315 312 314 313 315 314 315 315 317 317 317 314 314 312 312 315 318 315 312 313 312 316 314 320 320 323 316
303 303 303 304 304 303 302 302 301 301 300 304 306 311 308 305 307 314 315 316 314 314 313 314 314 314 314 314 315 315 315 314 313 311 312 315 317 315 314 316 316 313 316 314 315 315 320
302 303 303 303 303 303 302 302 301 300 299 305 308 317 307 307 317 316 316 314 311 314 313 312 313 313 314 314 315 315 315 315 312 312 314 312 316 317 316 312 311 313 315 315 317 318 314
302 302 302 302 302 302 301 301 300 300 300 303 310 312 309 310 318 315 314 314 314 314 313 312 313 313 313 314 315 315 314 311 312 313 313 312 316 317 315 315 312 314 313 313 311 313 318
302 301 301 301 302 302 301 300 300 299 299 303 309 315 314 313 313 314 314 314 315 313 312 311 312 312 313 313 312 314 314 312 311 311 310 311 313 316 317 319 316 315 314 313 313 317 315
301 300 301 301 301 301 301 300 300 298 300 304 308 308 308 317 315 314 314 315 315 315 314 312 312 312 312 313 312 313 313 312 311 312 311 313 318 313 311 312 313 314 314 313 314 313 315
300 300 301 301 301 301 301 300 300 296 300 303 305 306 306 311 310 313 311 315 315 315 314 312 313 312 311 312 312 313 313 312 312 312 312 312 315 314 314 312 312 313 313 313 313 312 312
299 300 301 301 301 301 299 299 300 297 296 299 300 302 304 309 311 313 314 314 314 314 314 313 314 313 313 313 313 312 312 312 312 312 312 313 315 315 316 311 311 314 313 313 313 312 312
300 300 301 301 300 300 299 299 299 299 296 296 296 299 303 311 309 311 310 310 312 313 315 314 314 315 311 310 310 311 311 312 312 312 311 313 314 314 316 313 317 314 311 311 312 312 312
300 300 300 300 300 300 299 299 299 299 297 297 296 297 300 302 303 306 308 309 310 311 313 314 315 313 311 313 314 314 314 313 313 312 312 311 312 315 316 315 314 311 310 311 313 315 311
299 301 300 299 299 299 298 299 299 299 298 298 296 296 297 298 303 301 303 306 310 312 312 313 313 312 313 315 315 314 316 313 314 314 312 312 312 314 313 315 316 314 314 311 312 321 313
299 301 299 298 299 299 299 298 298 299 298 298 297 296 297 297 296 299 301 304 305 309 311 311 313 314 313 316 316 314 314 312 314 314 314 314 313 315 313 313 313 311 315 313 321 320 314
299 301 300 299 299 299 298 298 298 298 298 298 298 296 296 297 298 297 297 298 298 301 307 309 312 313 315 316 315 315 313 314 312 313 313 313 313 313 313 314 314 311 315 316 315 313 313
301 302 301 299 298 298 299 299 298 298 298 298 298 296 295 296 297 296 296 295 295 296 298 303 307 309 312 316 314 314 312 313 314 315 311 314 312 313 313 314 311 311 312 313 313 314 313
Wind_Speed
22 23 25 25 27 27 29 30 29 29 28 26 26 23 19 16 12 11 13 11 9 5 5 5 5 4 5 9 12 5 13 15 18 21 25 19 23 18 17 19 16 17 11 15 6 6 9
22 23 25 25 27 29 30 30 29 29 29 29 29 25 17 15 12 11 12 10 7 5 4 5 4 5 9 16 6 11 12 3 12 24 28 25 19 21 10 9 19 11 8 13 10 7 6
21 23 24 25 27 29 29 29 31 32 33 31 29 27 18 11 11 10 8 10 7 6 5 6 6 9 13 16 3 5 13 12 8 30 22 25 21 17 7 7 10 10 15 7 14 10 7
21 23 24 26 28 29 29 31 31 34 33 33 30 25 17 9 7 8 9 7 7 7 6 6 6 10 10 13 22 14 6 10 14 25 26 21 17 17 7 5 12 10 14 13 11 11 8
21 22 24 25 28 29 29 30 32 34 35 33 31 21 15 1 4 4 5 6 7 6 5 3 7 10 9 1 15 18 13 10 12 24 21 15 19 17 9 13 13 14 13 17 11 15 12
20 21 24 25 27 29 29 30 31 33 34 32 28 20 8 6 4 3 3 2 2 3 5 5 6 5 10 7 17 16 16 9 18 20 11 8 6 15 12 14 16 18 19 17 17 9 14
19 22 24 26 27 29 29 30 30 31 32 30 22 15 13 9 7 7 4 0 3 3 8 2 3 10 7 13 15 12 18 11 18 19 14 21 9 20 28 23 14 13 16 12 12 8 7
20 22 23 25 26 28 28 29 28 30 32 29 16 14 13 9 6 4 4 2 6 4 3 6 6 8 11 11 9 15 16 5 19 21 17 7 17 19 17 18 9 7 15 12 5 6 7
18 20 22 24 26 27 28 28 28 28 28 27 16 8 11 7 7 9 10 7 6 4 3 5 5 7 7 6 5 5 4 8 4 22 17 13 9 15 12 14 12 12 15 14 4 9 8
17 19 22 24 26 26 27 27 27 26 25 23 16 11 12 2 2 3 6 6 4 4 2 6 2 1 4 3 5 8 6 4 3 21 12 5 5 17 15 17 16 12 8 9 6 7 6
15 19 21 22 25 26 27 27 27 27 25 21 17 13 11 6 1 2 2 4 5 3 2 4 4 6 5 2 10 7 3 3 5 7 3 2 5 18 19 18 14 7 10 9 6 4 4
14 17 20 22 24 27 28 28 28 27 26 25 21 13 9 6 2 0 2 5 4 3 7 4 3 5 1 3 5 4 5 3 5 7 11 5 4 3 4 3 12 12 12 8 5 2 4
13 16 20 22 24 25 28 29 30 29 28 28 25 12 8 4 4 3 5 3 3 5 2 5 2 4 13 6 7 3 2 1 4 4 3 5 3 2 1 10 9 9 14 4 5 4 3
13 14 18 20 23 26 28 30 32 31 32 32 21 8 9 6 4 5 4 3 7 5 4 2 2 8 6 3 2 4 4 4 5 10 4 3 4 4 5 2 8 11 11 2 6 6 6
12 14 17 19 22 25 27 30 32 33 36 35 12 3 5 4 4 4 3 5 3 2 4 3 4 5 4 5 5 7 6 5 4 1 3 4 4 4 0 2 6 6 6 3 2 2 1
10 14 16 19 21 24 27 29 31 34 37 26 7 4 4 2 3 4 1 4 1 3 4 4 2 2 2 3 4 3 1 3 5 2 2 4 6 6 5 5 3 3 4 2 2 3 5
9 13 15 20 22 25 28 30 31 33 37 15 4 3 3 2 4 2 3 4 4 3 3 4 3 2 6 4 2 2 3 3 2 3 2 4 4 6 8 7 9 5 4 3 3 2 3
9 12 16 19 23 24 28 30 31 32 35 10 4 2 0 2 0 2 3 0 2 1 0 0 1 2 4 4 3 2 3 3 3 2 3 3 5 4 2 3 4 4 5 10 3 4 1
9 12 16 19 22 23 26 28 30 31 27 8 5 3 2 1 1 5 5 3 2 1 1 1 1 2 1 4 3 3 2 3 2 0 2 5 4 5 2 3 3 6 9 6 1 3 4
8 11 15 19 20 21 24 27 30 32 25 3 3 2 1 2 4 1 4 3 3 1 0 1 2 3 5 4 1 6 4 2 1 2 4 1 3 2 1 3 3 6 11 12 8 3 5
8 12 14 19 20 20 22 25 28 33 17 4 3 2 2 2 2 3 2 0 1 1 0 2 3 3 3 4 4 4 6 4 2 3 2 1 2 1 0 3 2 4 8 14 13 11 6
7 10 13 18 19 19 21 24 26 33 14 6 3 3 5 4 4 4 1 2 3 2 2 1 3 3 4 1 1 5 8 6 5 7 5 2 2 1 2 3 6 8 10 11 16 16 16
6 9 12 17 19 16 21 21 23 29 18 7 7 3 3 2 2 4 2 3 4 4 2 1 4 1 4 2 2 2 2 2 3 6 9 6 5 2 1 2 4 9 17 18 15 10 16
7 9 13 15 17 16 17 19 18 21 21 9 6 3 3 1 3 3 4 5 4 5 4 2 3 5 3 3 4 4 4 4 5 4 6 7 5 2 1 3 4 2 3 4 18 13 15
6 9 11 13 16 15 15 15 15 15 17 10 9 5 4 4 6 3 4 4 8 3 2 2 3 3 3 2 3 4 3 4 4 4 7 7 7 2 3 5 10 7 6 5 8 9 18
5 8 11 11 13 14 18 14 12 13 12 9 6 7 2 4 4 6 8 5 4 4 3 1 2 1 2 3 2 3 4 3 4 5 4 6 7 4 2 3 3 4 5 3 5 3 6
5 7 10 11 12 13 14 16 12 11 10 8 3 8 2 3 2 6 3 5 4 3 4 2 2 2 2 3 5 4 5 1 4 5 6 7 7 9 7 4 6 4 6 6 4 5 8
6 7 9 11 12 12 12 14 10 11 8 6 6 4 3 2 8 5 4 6 6 5 4 5 3 4 2 5 4 3 5 6 4 5 6 9 6 6 7 6 7 8 6 4 6 5 4
6 9 8 11 12 11 11 10 15 13 11 2 3 3 4 5 4 10 16 17 16 12 5 3 4 4 4 4 6 3 5 3 8 4 9 6 7 3 7 4 4 6 5 4 2 1 1
Wind_Direction
350 349 347 345 343 343 340 336 336 334 331 323 320 315 313 309 297 283 287 281 278 284 303 285 229 211 246 228 243 138 109 193 192 199 203 202 196 196 206 198 211 221 214 222 251 169 222
351 351 349 347 346 343 341 339 337 334 329 322 316 310 308 305 297 282 277 277 280 286 293 273 240 209 239 251 262 212 210 228 203 207 208 200 201 195 228 206 209 206 203 216 203 180 199
350 350 348 346 345 345 345 340 336 337 333 333 328 319 295 285 291 292 260 282 280 281 274 270 245 218 244 238 314 139 235 255 251 198 204 201 197 192 218 191 197 247 202 209 216 207 205
349 350 349 348 349 348 346 345 342 341 344 341 338 332 317 253 298 286 295 283 275 276 269 262 239 230 253 255 237 245 240 250 244 210 197 195 198 198 236 178 187 187 209 212 202 207 217
350 350 350 349 350 349 350 347 346 348 350 347 345 339 337 329 347 315 307 289 279 268 257 233 214 223 252 190 220 217 218 229 240 212 187 183 206 185 196 189 184 199 202 208 190 207 208
349 352 351 352 352 352 352 350 349 352 353 354 357 3 57 56 10 29 354 347 274 182 190 195 249 233 242 230 184 186 202 235 229 161 140 179 181 187 198 198 199 198 214 202 205 185 220
352 353 354 351 354 356 355 350 350 354 356 360 6 46 55 39 64 52 41 84 188 148 203 263 351 246 5 327 156 180 189 224 159 153 188 170 174 192 195 199 215 228 199 228 216 128 203
355 355 353 352 354 357 356 351 353 356 0 6 26 65 41 51 57 53 14 16 39 336 264 242 283 291 281 268 183 164 183 56 160 168 174 169 211 196 195 193 201 243 190 191 178 146 215
353 354 354 353 353 357 356 353 354 355 0 8 21 46 34 48 56 60 69 39 332 300 278 29 357 291 300 313 104 113 69 108 196 176 191 187 191 195 201 189 180 203 196 189 232 183 233
352 355 354 355 354 355 357 353 352 352 354 360 4 4 357 348 342 8 56 13 9 357 254 17 56 330 280 337 63 65 53 66 348 184 179 155 226 186 179 185 193 185 191 161 165 198 225
355 354 355 355 355 354 356 353 351 349 348 346 347 333 342 37 44 81 350 339 319 237 106 29 296 323 285 351 140 34 85 97 180 107 171 107 205 195 184 186 208 114 153 159 154 232 309
357 355 354 356 356 355 354 353 350 348 344 338 329 322 326 301 335 18 322 307 269 245 43 14 257 159 235 123 88 150 62 59 47 83 50 60 20 7 25 164 195 134 130 131 132 190 236
1 357 356 355 355 353 353 352 350 347 342 337 328 293 299 307 315 309 316 273 274 26 249 14 54 106 73 67 56 80 87 147 121 118 85 41 27 81 340 118 131 168 172 152 186 196 242
0 359 356 354 357 355 354 350 348 346 343 337 329 299 273 268 257 307 272 238 46 344 63 210 198 88 71 113 43 129 151 97 68 86 130 142 126 1 345 123 170 194 196 233 204 190 164
360 352 354 352 354 355 355 352 347 345 344 340 336 298 269 283 235 292 261 47 65 285 335 93 84 73 102 104 146 211 97 87 131 40 99 122 84 123 82 299 166 171 211 14 353 60 242
355 350 350 351 349 354 355 353 348 345 345 342 322 279 258 278 212 244 36 91 69 194 276 292 62 260 133 146 183 180 69 63 121 9 284 117 111 121 137 139 347 214 145 172 165 209 217
358 352 351 350 350 352 355 353 352 348 346 355 292 269 123 326 195 210 74 68 106 190 283 327 20 120 123 170 236 95 57 109 89 88 26 114 90 141 158 207 171 160 197 216 298 288 290
357 356 354 351 351 351 354 353 353 351 349 8 300 288 138 133 285 93 79 203 292 22 225 95 61 56 149 155 165 127 134 49 101 131 89 27 100 138 163 89 329 322 234 209 239 184 255
359 359 359 355 352 351 354 354 353 353 354 327 320 299 185 177 150 118 139 153 227 161 87 122 107 333 264 159 157 146 88 61 122 104 130 159 130 126 172 203 191 219 211 223 175 351 215
349 356 353 352 353 350 354 356 355 352 351 317 313 317 71 176 337 190 168 153 184 148 48 343 117 163 166 172 355 158 136 67 61 33 21 21 146 308 233 68 132 193 208 203 195 203 203
357 355 353 353 355 353 356 359 358 354 1 323 11 20 2 322 107 331 281 267 212 143 186 245 183 257 195 160 154 149 137 140 180 151 166 257 160 106 108 99 139 219 208 204 210 217 227
350 351 352 355 352 353 353 1 3 1 20 61 13 355 328 290 298 266 162 68 10 38 319 141 277 183 192 241 282 173 175 186 183 184 201 178 131 101 277 227 238 249 234 221 220 223 241
355 340 344 354 354 4 6 8 11 11 24 43 14 330 317 73 294 269 54 27 33 333 92 9 358 247 218 41 346 16 86 163 158 182 191 184 149 175 240 214 274 266 232 216 214 218 224
330 338 341 351 359 2 3 6 11 12 23 35 22 328 323 334 285 352 344 337 322 346 330 359 333 309 60 111 122 127 123 124 140 156 187 186 162 152 273 243 237 58 74 207 219 221 219
333 355 349 354 356 356 357 359 8 9 15 23 19 12 359 305 345 271 326 322 301 267 261 308 46 13 165 247 175 156 166 179 169 197 199 219 186 173 246 228 295 237 191 179 180 233 223
342 356 349 350 356 359 1 358 1 4 358 11 21 21 341 318 59 341 326 323 310 309 233 126 63 348 236 256 241 244 214 204 175 172 218 209 238 237 216 263 258 48 141 174 175 210 174
313 339 347 349 344 351 351 2 359 14 16 6 337 8 4 312 2 337 333 341 331 287 283 307 337 206 252 236 244 245 246 134 216 206 187 194 207 222 227 264 285 144 136 153 225 99 125
290 304 342 348 340 346 351 356 1 356 0 355 331 349 12 289 287 261 285 294 309 277 285 24 249 203 201 236 232 221 260 208 239 212 182 189 197 209 223 229 259 130 131 226 84 109 101
287 307 315 337 338 337 339 342 343 339 332 334 297 306 281 248 280 285 268 270 267 272 305 277 322 316 350 252 229 215 224 239 244 233 198 207 206 228 209 226 122 190 282 83 19 311 143